User: anonymous   Login
Location: Unspecified
(0.0000°N, 0.0000°E)
Time: 02:16:48
(UTC+00:00)
Language:

USA 176 - Orbit

View from above orbital plane
View from above orbital plane
View from above satellite
View from above satellite

Ground track
Ground track

The orbit data is extracted from the following two-line orbital elements,

1 28158U 04004A   16035.58103272 0.00000000  00000-0  00000-0 0    08
2 28158   6.9974  49.5365 0004374 229.3140 130.6575  1.00270000    09
Epoch (UTC): 04 February 2016 13:56:41
Eccentricity: 0.0004374
inclination: 6.9974°
perigee height: 35768 km
apogee height: 35805 km
right ascension of ascending node: 49.5365°
argument of perigee: 229.3140°
revolutions per day: 1.00270000
mean anomaly at epoch: 130.6575°
orbit number at epoch: 0

The dashed part of the orbit path shows where the satellite is in the earth's shadow,  

DLR